QPF
0.04 0.04 0.05 0.05 0.05 0.05 0.05 0.07 0.09 0.06 0.02 0.00 0.00 0.00 0.00 0.00 0.00 0.00 0.00 0.01 0.01 0.01 0.01 0.02 0.02 0.02 0.02 0.02 0.04 0.10 0.26 0.40 0.47 0.41 0.32 0.31 0.31 0.30
0.03 0.04 0.05 0.05 0.05 0.05 0.06 0.07 0.08 0.09 0.05 0.01 0.00 0.00 0.00 0.00 0.00 0.00 0.00 0.00 0.00 0.01 0.01 0.02 0.02 0.02 0.02 0.03 0.03 0.05 0.14 0.33 0.47 0.50 0.41 0.35 0.35 0.35
0.03 0.04 0.04 0.05 0.05 0.06 0.06 0.06 0.06 0.07 0.06 0.02 0.00 0.00 0.00 0.00 0.00 0.00 0.00 0.00 0.00 0.00 0.01 0.01 0.02 0.02 0.03 0.03 0.03 0.03 0.06 0.19 0.40 0.53 0.53 0.45 0.39 0.36
0.02 0.03 0.04 0.04 0.05 0.06 0.06 0.05 0.04 0.04 0.04 0.02 0.01 0.00 0.00 0.01 0.01 0.00 0.00 0.00 0.00 0.00 0.01 0.01 0.01 0.02 0.03 0.03 0.03 0.02 0.03 0.08 0.23 0.44 0.55 0.53 0.44 0.39
0.01 0.02 0.03 0.04 0.05 0.06 0.06 0.06 0.05 0.04 0.04 0.04 0.02 0.01 0.02 0.02 0.01 0.00 0.00 0.00 0.00 0.00 0.01 0.01 0.02 0.02 0.03 0.03 0.04 0.03 0.02 0.04 0.09 0.24 0.47 0.60 0.57 0.47
0.01 0.01 0.02 0.03 0.04 0.06 0.07 0.06 0.05 0.04 0.03 0.03 0.03 0.02 0.03 0.02 0.01 0.01 0.01 0.01 0.01 0.01 0.01 0.01 0.02 0.02 0.03 0.04 0.04 0.03 0.02 0.03 0.07 0.12 0.27 0.49 0.62 0.60
0.00 0.01 0.01 0.01 0.03 0.06 0.07 0.06 0.04 0.03 0.02 0.02 0.02 0.02 0.02 0.01 0.02 0.02 0.01 0.01 0.01 0.02 0.01 0.01 0.02 0.02 0.03 0.04 0.05 0.04 0.03 0.02 0.04 0.08 0.14 0.26 0.42 0.52
0.01 0.01 0.00 0.01 0.02 0.02 0.03 0.03 0.03 0.03 0.03 0.02 0.02 0.02 0.01 0.01 0.01 0.02 0.02 0.01 0.01 0.02 0.01 0.01 0.03 0.04 0.04 0.04 0.05 0.05 0.04 0.03 0.03 0.04 0.09 0.14 0.22 0.34
0.01 0.01 0.01 0.01 0.01 0.02 0.02 0.01 0.01 0.01 0.02 0.03 0.02 0.01 0.02 0.02 0.02 0.02 0.02 0.02 0.01 0.01 0.02 0.02 0.04 0.05 0.06 0.06 0.07 0.07 0.05 0.04 0.03 0.03 0.05 0.09 0.13 0.19
0.01 0.01 0.01 0.01 0.01 0.04 0.02 0.01 0.00 0.01 0.01 0.02 0.02 0.02 0.02 0.03 0.04 0.03 0.03 0.02 0.01 0.03 0.03 0.05 0.06 0.07 0.07 0.07 0.09 0.09 0.08 0.06 0.04 0.03 0.03 0.05 0.08 0.12
0.01 0.01 0.01 0.01 0.02 0.04 0.02 0.01 0.00 0.01 0.01 0.01 0.02 0.02 0.03 0.03 0.04 0.04 0.03 0.02 0.03 0.05 0.05 0.07 0.09 0.09 0.09 0.09 0.11 0.12 0.11 0.09 0.06 0.04 0.03 0.04 0.05 0.08
0.01 0.01 0.01 0.02 0.03 0.03 0.02 0.01 0.02 0.02 0.01 0.01 0.01 0.01 0.01 0.01 0.02 0.03 0.04 0.04 0.04 0.06 0.07 0.08 0.12 0.14 0.12 0.12 0.14 0.14 0.13 0.12 0.09 0.06 0.04 0.04 0.05 0.07
0.02 0.01 0.01 0.02 0.02 0.02 0.01 0.02 0.03 0.02 0.01 0.01 0.01 0.01 0.01 0.01 0.01 0.02 0.03 0.04 0.05 0.06 0.07 0.09 0.15 0.17 0.15 0.15 0.17 0.17 0.17 0.15 0.10 0.07 0.05 0.05 0.06 0.07
0.01 0.01 0.01 0.01 0.01 0.01 0.01 0.01 0.01 0.01 0.01 0.01 0.01 0.01 0.01 0.01 0.01 0.01 0.02 0.02 0.03 0.05 0.06 0.10 0.16 0.19 0.17 0.16 0.19 0.21 0.20 0.20 0.16 0.10 0.06 0.07 0.09 0.10
0.01 0.01 0.01 0.01 0.01 0.00 0.00 0.00 0.00 0.00 0.01 0.01 0.02 0.02 0.02 0.02 0.01 0.01 0.01 0.02 0.02 0.04 0.06 0.08 0.14 0.18 0.18 0.19 0.22 0.23 0.23 0.24 0.21 0.16 0.10 0.08 0.09 0.11
0.01 0.00 0.00 0.00 0.00 0.00 0.00 0.00 0.00 0.00 0.01 0.01 0.02 0.02 0.01 0.01 0.02 0.02 0.02 0.02 0.02 0.03 0.05 0.07 0.11 0.16 0.18 0.20 0.22 0.24 0.23 0.24 0.24 0.21 0.16 0.12 0.12 0.12
0.01 0.00 0.00 0.00 0.00 0.00 0.00 0.00 0.00 0.00 0.00 0.01 0.01 0.01 0.01 0.02 0.02 0.02 0.02 0.02 0.03 0.03 0.04 0.07 0.10 0.13 0.17 0.21 0.22 0.26 0.24 0.22 0.23 0.22 0.19 0.16 0.17 0.18
0.00 0.00 0.00 0.00 0.00 0.00 0.00 0.00 0.00 0.00 0.00 0.01 0.01 0.01 0.02 0.02 0.02 0.02 0.02 0.02 0.03 0.03 0.05 0.07 0.09 0.11 0.15 0.20 0.25 0.28 0.26 0.24 0.24 0.24 0.21 0.17 0.19 0.22
0.00 0.00 0.01 0.01 0.01 0.01 0.00 0.00 0.00 0.00 0.00 0.01 0.01 0.01 0.02 0.02 0.02 0.02 0.02 0.02 0.02 0.03 0.04 0.07 0.08 0.10 0.14 0.19 0.23 0.28 0.28 0.26 0.24 0.26 0.26 0.20 0.19 0.23
0.00 0.01 0.01 0.01 0.01 0.01 0.01 0.00 0.00 0.00 0.00 0.00 0.01 0.01 0.01 0.02 0.02 0.02 0.02 0.03 0.03 0.03 0.04 0.06 0.08 0.10 0.13 0.17 0.19 0.23 0.31 0.29 0.24 0.24 0.27 0.24 0.23 0.27
0.00 0.00 0.01 0.01 0.01 0.01 0.01 0.01 0.00 0.00 0.00 0.00 0.01 0.01 0.01 0.02 0.02 0.02 0.02 0.02 0.02 0.02 0.04 0.06 0.08 0.10 0.13 0.15 0.17 0.20 0.26 0.34 0.31 0.23 0.22 0.21 0.20 0.21
0.00 0.01 0.01 0.01 0.01 0.01 0.01 0.01 0.01 0.00 0.00 0.00 0.00 0.01 0.01 0.01 0.02 0.02 0.02 0.02 0.02 0.03 0.03 0.05 0.06 0.08 0.12 0.14 0.17 0.19 0.21 0.25 0.31 0.29 0.22 0.18 0.15 0.16
0.01 0.01 0.01 0.01 0.01 0.01 0.01 0.01 0.01 0.00 0.00 0.00 0.00 0.00 0.01 0.01 0.01 0.01 0.01 0.02 0.02 0.02 0.03 0.04 0.05 0.07 0.11 0.14 0.16 0.17 0.18 0.20 0.23 0.26 0.28 0.27 0.22 0.17
MSLP
1021.92 1021.11 1020.38 1019.71 1019.11 1018.53 1017.93 1017.27 1016.53 1015.69 1014.76 1013.75 1012.73 1011.72 1010.77 1009.93 1009.21 1008.61 1008.13 1007.74 1007.42 1007.14 1006.86 1006.57 1006.27 1005.96 1005.65 1005.36 1005.11 1004.91 1004.80 1004.78 1004.89 1005.13 1005.51 1006.05 1006.71 1007.50
1021.84 1021.03 1020.26 1019.53 1018.85 1018.18 1017.51 1016.80 1016.02 1015.18 1014.27 1013.31 1012.34 1011.39 1010.49 1009.66 1008.93 1008.30 1007.76 1007.30 1006.91 1006.56 1006.25 1005.96 1005.68 1005.42 1005.18 1004.96 1004.78 1004.62 1004.52 1004.49 1004.54 1004.68 1004.95 1005.36 1005.90 1006.58
1021.75 1020.95 1020.15 1019.39 1018.64 1017.91 1017.18 1016.43 1015.64 1014.81 1013.94 1013.05 1012.14 1011.26 1010.41 1009.60 1008.86 1008.17 1007.55 1006.98 1006.47 1006.02 1005.61 1005.26 1004.96 1004.72 1004.52 1004.36 1004.24 1004.14 1004.08 1004.06 1004.10 1004.20 1004.39 1004.71 1005.16 1005.76
1021.60 1020.82 1020.04 1019.26 1018.48 1017.72 1016.95 1016.18 1015.39 1014.59 1013.78 1012.95 1012.13 1011.32 1010.51 1009.73 1008.96 1008.21 1007.49 1006.80 1006.14 1005.54 1005.01 1004.56 1004.19 1003.91 1003.72 1003.59 1003.52 1003.49 1003.48 1003.50 1003.56 1003.66 1003.84 1004.12 1004.52 1005.07
1021.32 1020.60 1019.86 1019.10 1018.34 1017.57 1016.80 1016.03 1015.27 1014.50 1013.75 1013.00 1012.25 1011.50 1010.75 1009.98 1009.20 1008.40 1007.58 1006.76 1005.96 1005.20 1004.52 1003.93 1003.46 1003.11 1002.88 1002.75 1002.70 1002.71 1002.76 1002.83 1002.94 1003.08 1003.29 1003.58 1003.99 1004.53
1020.89 1020.25 1019.58 1018.87 1018.15 1017.42 1016.68 1015.94 1015.20 1014.48 1013.78 1013.09 1012.42 1011.73 1011.03 1010.29 1009.50 1008.66 1007.77 1006.85 1005.92 1005.02 1004.19 1003.46 1002.86 1002.41 1002.10 1001.92 1001.86 1001.88 1001.97 1002.10 1002.27 1002.48 1002.75 1003.10 1003.55 1004.12
1020.30 1019.74 1019.16 1018.54 1017.89 1017.22 1016.52 1015.82 1015.13 1014.45 1013.80 1013.16 1012.54 1011.91 1011.26 1010.55 1009.78 1008.94 1008.02 1007.03 1006.02 1005.01 1004.05 1003.19 1002.46 1001.88 1001.46 1001.20 1001.09 1001.09 1001.18 1001.35 1001.58 1001.86 1002.22 1002.65 1003.18 1003.81
1019.56 1019.10 1018.61 1018.08 1017.52 1016.92 1016.29 1015.64 1014.98 1014.34 1013.72 1013.13 1012.55 1011.97 1011.36 1010.71 1009.98 1009.16 1008.25 1007.26 1006.21 1005.14 1004.09 1003.12 1002.27 1001.56 1001.02 1000.65 1000.45 1000.39 1000.46 1000.63 1000.90 1001.26 1001.69 1002.22 1002.83 1003.54
1018.73 1018.34 1017.94 1017.51 1017.04 1016.52 1015.95 1015.36 1014.75 1014.14 1013.54 1012.97 1012.42 1011.88 1011.32 1010.72 1010.05 1009.29 1008.43 1007.47 1006.43 1005.34 1004.26 1003.22 1002.27 1001.45 1000.78 1000.29 999.97 999.82 999.83 999.98 1000.26 1000.66 1001.17 1001.77 1002.47 1003.25
1017.89 1017.56 1017.24 1016.89 1016.50 1016.06 1015.55 1015.01 1014.43 1013.84 1013.26 1012.71 1012.17 1011.66 1011.14 1010.59 1009.98 1009.29 1008.50 1007.61 1006.62 1005.56 1004.48 1003.40 1002.39 1001.48 1000.70 1000.09 999.65 999.40 999.32 999.42 999.68 1000.09 1000.63 1001.30 1002.06 1002.90
1017.13 1016.83 1016.56 1016.28 1015.96 1015.58 1015.14 1014.64 1014.09 1013.52 1012.95 1012.40 1011.87 1011.36 1010.86 1010.35 1009.79 1009.17 1008.46 1007.64 1006.72 1005.72 1004.66 1003.59 1002.55 1001.57 1000.71 1000.00 999.45 999.09 998.93 998.95 999.17 999.55 1000.10 1000.79 1001.59 1002.47
1016.52 1016.24 1016.00 1015.77 1015.50 1015.17 1014.78 1014.32 1013.80 1013.25 1012.68 1012.12 1011.58 1011.07 1010.57 1010.07 1009.54 1008.96 1008.30 1007.55 1006.70 1005.75 1004.75 1003.70 1002.66 1001.66 1000.75 999.96 999.33 998.88 998.63 998.58 998.73 999.07 999.59 1000.27 1001.07 1001.96
1016.12 1015.84 1015.62 1015.41 1015.17 1014.89 1014.53 1014.10 1013.61 1013.07 1012.50 1011.94 1011.38 1010.84 1010.32 1009.81 1009.28 1008.70 1008.07 1007.36 1006.55 1005.66 1004.70 1003.70 1002.68 1001.69 1000.77 999.95 999.26 998.75 998.42 998.30 998.38 998.65 999.12 999.76 1000.53 1001.40
1015.93 1015.65 1015.42 1015.22 1015.01 1014.75 1014.42 1014.02 1013.55 1013.03 1012.47 1011.89 1011.31 1010.74 1010.19 1009.63 1009.06 1008.47 1007.82 1007.11 1006.32 1005.46 1004.55 1003.59 1002.62 1001.66 1000.75 999.93 999.24 998.69 998.31 998.12 998.13 998.34 998.73 999.29 1000.01 1000.83
1015.93 1015.64 1015.41 1015.20 1014.99 1014.74 1014.44 1014.06 1013.62 1013.11 1012.56 1011.98 1011.39 1010.79 1010.18 1009.58 1008.95 1008.30 1007.61 1006.87 1006.07 1005.23 1004.34 1003.42 1002.49 1001.58 1000.72 999.94 999.26 998.71 998.31 998.07 998.02 998.14 998.45 998.93 999.56 1000.32
1016.06 1015.76 1015.52 1015.30 1015.08 1014.83 1014.53 1014.18 1013.76 1013.28 1012.76 1012.19 1011.59 1010.97 1010.33 1009.67 1008.98 1008.26 1007.51 1006.72 1005.89 1005.03 1004.15 1003.26 1002.38 1001.53 1000.73 1000.00 999.36 998.83 998.43 998.17 998.06 998.11 998.33 998.72 999.26 999.93
1016.27 1015.96 1015.70 1015.46 1015.22 1014.95 1014.66 1014.32 1013.93 1013.49 1013.00 1012.46 1011.89 1011.26 1010.60 1009.90 1009.16 1008.38 1007.56 1006.71 1005.84 1004.95 1004.07 1003.20 1002.37 1001.57 1000.83 1000.16 999.58 999.08 998.70 998.42 998.28 998.27 998.42 998.71 999.16 999.75
1016.48 1016.17 1015.88 1015.60 1015.33 1015.05 1014.75 1014.43 1014.07 1013.68 1013.24 1012.76 1012.22 1011.63 1010.97 1010.26 1009.49 1008.66 1007.79 1006.89 1005.98 1005.06 1004.17 1003.31 1002.50 1001.76 1001.08 1000.47 999.94 999.49 999.13 998.86 998.70 998.66 998.74 998.97 999.34 999.86
1016.67 1016.34 1016.02 1015.70 1015.40 1015.09 1014.78 1014.47 1014.15 1013.81 1013.43 1013.02 1012.55 1012.01 1011.40 1010.71 1009.94 1009.10 1008.20 1007.26 1006.31 1005.37 1004.47 1003.61 1002.83 1002.12 1001.49 1000.94 1000.46 1000.06 999.74 999.50 999.34 999.29 999.34 999.52 999.84 1000.30
1016.81 1016.46 1016.10 1015.74 1015.39 1015.06 1014.74 1014.44 1014.15 1013.86 1013.56 1013.23 1012.85 1012.39 1011.84 1011.20 1010.46 1009.64 1008.74 1007.79 1006.82 1005.87 1004.95 1004.10 1003.33 1002.65 1002.06 1001.56 1001.14 1000.80 1000.52 1000.32 1000.20 1000.16 1000.21 1000.39 1000.69 1001.13
1016.90 1016.52 1016.13 1015.73 1015.34 1014.97 1014.64 1014.34 1014.09 1013.85 1013.62 1013.38 1013.09 1012.73 1012.27 1011.70 1011.02 1010.23 1009.35 1008.42 1007.46 1006.50 1005.59 1004.75 1003.99 1003.34 1002.78 1002.33 1001.96 1001.68 1001.47 1001.32 1001.25 1001.26 1001.36 1001.56 1001.88 1002.33
1016.96 1016.56 1016.13 1015.68 1015.25 1014.85 1014.50 1014.21 1013.98 1013.80 1013.64 1013.48 1013.28 1013.01 1012.64 1012.15 1011.54 1010.82 1009.99 1009.09 1008.15 1007.21 1006.31 1005.49 1004.76 1004.13 1003.62 1003.21 1002.91 1002.69 1002.55 1002.48 1002.48 1002.56 1002.73 1002.99 1003.36 1003.85
1017.00 1016.57 1016.10 1015.62 1015.15 1014.72 1014.36 1014.07 1013.86 1013.71 1013.61 1013.52 1013.41 1013.23 1012.95 1012.55 1012.02 1011.36 1010.59 1009.74 1008.84 1007.94 1007.08 1006.29 1005.59 1005.01 1004.54 1004.19 1003.95 1003.80 1003.74 1003.76 1003.85 1004.02 1004.27 1004.61 1005.05 1005.59
Thickness
5139 5136 5132 5131 5131 5133 5137 5143 5150 5164 5183 5200 5217 5235 5251 5268 5287 5306 5326 5347 5373 5401 5428 5456 5482 5507 5531 5554 5576 5597 5617 5635 5650 5662 5670 5676 5678 5680
5141 5138 5135 5135 5136 5138 5142 5148 5155 5164 5179 5197 5212 5228 5244 5261 5278 5295 5314 5336 5361 5387 5414 5441 5467 5493 5517 5541 5564 5585 5605 5623 5640 5654 5664 5671 5675 5678
5142 5139 5138 5138 5140 5143 5147 5153 5160 5167 5179 5196 5210 5225 5240 5255 5270 5286 5305 5325 5348 5373 5400 5427 5454 5480 5505 5529 5552 5573 5594 5613 5630 5646 5658 5666 5671 5674
5144 5141 5140 5141 5142 5146 5151 5156 5163 5171 5180 5193 5209 5223 5236 5250 5264 5279 5296 5316 5338 5363 5389 5416 5443 5469 5494 5518 5541 5562 5583 5602 5620 5637 5651 5661 5667 5669
5147 5144 5142 5142 5145 5149 5154 5160 5166 5174 5182 5192 5205 5219 5232 5245 5258 5272 5288 5307 5329 5353 5378 5406 5433 5459 5484 5508 5530 5551 5572 5593 5613 5629 5642 5653 5660 5664
5151 5147 5145 5144 5147 5152 5157 5162 5168 5174 5181 5190 5202 5214 5226 5239 5250 5262 5280 5298 5319 5342 5368 5394 5421 5448 5474 5500 5525 5544 5563 5581 5600 5617 5633 5645 5653 5658
5157 5152 5149 5149 5151 5155 5160 5164 5168 5173 5180 5188 5198 5209 5220 5231 5241 5252 5268 5287 5310 5334 5357 5383 5411 5442 5468 5491 5512 5533 5552 5572 5590 5608 5623 5635 5643 5651
5163 5157 5154 5152 5152 5155 5159 5164 5169 5172 5179 5185 5193 5201 5211 5222 5233 5245 5258 5275 5298 5325 5344 5372 5400 5429 5457 5482 5505 5525 5544 5563 5581 5599 5614 5626 5636 5644
5169 5162 5158 5155 5154 5154 5158 5161 5164 5171 5178 5184 5189 5197 5207 5217 5228 5240 5252 5266 5286 5309 5330 5363 5393 5422 5449 5475 5497 5517 5536 5556 5573 5590 5605 5617 5628 5636
5174 5168 5161 5157 5157 5160 5159 5160 5162 5168 5176 5183 5190 5199 5209 5218 5227 5238 5249 5264 5284 5307 5327 5356 5386 5415 5442 5467 5490 5510 5529 5548 5566 5582 5596 5609 5620 5628
5179 5173 5166 5162 5162 5164 5162 5160 5164 5169 5177 5185 5193 5201 5211 5219 5228 5237 5247 5260 5280 5305 5325 5348 5376 5405 5434 5461 5484 5503 5522 5541 5559 5575 5589 5601 5611 5618
5184 5177 5171 5168 5167 5167 5164 5163 5166 5172 5177 5183 5191 5199 5207 5215 5225 5233 5242 5255 5271 5294 5319 5337 5363 5390 5425 5454 5476 5496 5514 5534 5552 5568 5582 5593 5602 5609
5188 5181 5174 5173 5171 5169 5168 5166 5170 5175 5177 5182 5189 5197 5205 5214 5223 5233 5243 5254 5268 5286 5308 5325 5349 5376 5408 5440 5467 5488 5508 5527 5544 5560 5574 5586 5596 5605
5191 5185 5179 5177 5174 5171 5169 5171 5173 5174 5176 5181 5188 5196 5204 5213 5223 5234 5246 5258 5272 5287 5305 5321 5342 5366 5393 5425 5456 5480 5500 5519 5536 5553 5567 5578 5588 5598
5195 5190 5186 5181 5176 5171 5171 5172 5172 5172 5176 5180 5187 5194 5203 5212 5224 5236 5249 5263 5278 5293 5309 5325 5342 5362 5385 5413 5442 5468 5491 5510 5528 5545 5560 5573 5584 5593
5198 5192 5188 5182 5177 5174 5172 5170 5171 5172 5176 5179 5186 5194 5203 5214 5225 5236 5250 5264 5280 5297 5313 5328 5345 5363 5386 5410 5435 5460 5482 5502 5520 5536 5552 5566 5577 5587
5202 5194 5189 5183 5179 5176 5173 5172 5172 5174 5176 5180 5186 5194 5204 5214 5224 5236 5249 5263 5278 5293 5311 5330 5348 5365 5385 5405 5430 5454 5475 5495 5513 5529 5543 5556 5567 5579
5204 5195 5189 5185 5180 5177 5175 5173 5173 5174 5176 5181 5186 5193 5202 5212 5223 5235 5248 5261 5276 5292 5308 5326 5345 5366 5387 5406 5422 5445 5467 5487 5504 5519 5535 5548 5556 5568
5202 5196 5190 5185 5182 5178 5176 5174 5174 5175 5177 5181 5186 5193 5202 5211 5222 5234 5247 5260 5275 5289 5305 5322 5340 5360 5383 5403 5419 5436 5457 5476 5493 5509 5522 5535 5545 5557
5203 5196 5191 5187 5183 5180 5178 5177 5176 5177 5179 5182 5186 5193 5200 5210 5221 5232 5245 5258 5273 5287 5303 5320 5336 5352 5370 5389 5406 5426 5446 5466 5485 5498 5509 5520 5531 5543
5205 5199 5193 5189 5185 5182 5180 5179 5178 5179 5180 5183 5187 5193 5200 5210 5219 5230 5243 5257 5271 5284 5299 5316 5332 5350 5366 5383 5401 5417 5435 5454 5472 5487 5499 5513 5519 5525
5206 5200 5196 5191 5187 5184 5182 5181 5180 5181 5182 5184 5188 5193 5200 5209 5219 5229 5241 5254 5267 5281 5296 5312 5331 5348 5364 5381 5395 5408 5424 5440 5456 5472 5487 5501 5511 5515
5208 5203 5198 5194 5190 5187 5184 5183 5182 5182 5183 5185 5188 5193 5200 5208 5217 5228 5239 5251 5264 5279 5294 5310 5327 5343 5358 5372 5385 5398 5412 5427 5441 5455 5464 5479 5493 5501